[[{"header":{"parameterUnit":"m.s-1","parameterCategory":1,"la1":30.2991,"la2":30.254,"lo1":-89.0895,"lo2":-89.0444,"dy":0.0017,"dx":0.0017,"nx":28,"ny":28,"refTime":"2024-08-11T09:00:00:Z","depth":0,"parameterNumber":2,"parameterNumberName":"U-component_of_WINDS"},"data":[0,0,0,0,0,0,0,0,0,0,0,0,0,0,0,0,0,0,0,0,0,0,0,0,0,0,0,0,0,0,0,0,0,0,0,0,0,0,0,0,0,0,0,0,0,0,0,0,0,0,0,0,0,0,0,0,0,0,4.1529,4.1534,0,4.2049,4.2055,4.2061,4.2196,4.2193,4.219,4.2187,4.2709,4.2725,4.2742,0,0,0,0,0,0,0,0,0,0,0,0,0,4.0635,4.0651,4.1528,4.1535,4.1541,4.2048,4.2055,4.2063,4.2197,4.2193,4.2189,4.2186,4.2703,4.2723,4.2744,0,0,0,0,0,0,0,0,0,0,0,0,0,4.1076,4.0656,4.1527,4.167,4.1688,4.2047,4.2056,4.2064,4.2198,4.2193,4.2188,4.2184,4.2697,4.2721,4.2746,4.2997,0,0,4.2824,4.2834,0,0,0,0,0,0,0,0,4.1051,4.1108,4.1642,4.166,4.1681,4.2053,4.1932,4.2377,4.2199,4.2004,4.2187,4.2182,4.2494,4.2535,4.2643,4.3022,4.3044,4.2826,4.2841,4.2852,4.2859,0,0,0,0,0,0,0,4.102,4.1087,4.1734,4.165,4.1674,4.1703,4.176,4.2017,4.2269,4.202,4.2032,4.2092,4.2503,4.2619,4.2657,4.3052,4.2825,4.2847,4.2863,4.2873,4.3657,4.3662,0,0,0,0,0,0,4.0967,4.106,4.1717,4.175,4.1348,4.1723,4.1787,4.1938,4.2266,4.2312,4.2095,4.2096,4.2578,4.2627,4.2675,4.299,4.2852,4.2875,4.289,4.3651,4.3658,4.3664,0,0,0,0,0,0,4.0947,4.1024,4.1696,4.1408,4.1496,4.1743,4.1912,4.1951,4.2067,4.2323,4.2367,4.2168,4.2576,4.264,4.2916,4.301,4.2887,4.291,4.3645,4.3653,4.3661,4.362,0,0,0,0,0,0,4.0921,4.1016,4.1118,4.141,4.1511,4.1933,4.1918,4.1965,4.2111,4.2117,4.2403,4.2446,4.2577,4.2878,4.2941,4.3042,4.293,4.3637,4.3648,4.3658,4.3614,4.3626,4.3636,0,0,0,0,0,4.0888,4.1084,4.1123,4.1201,4.1645,4.1938,4.1996,4.2147,4.2118,4.222,4.2384,4.2436,4.2988,4.2905,4.2977,4.3087,4.3632,4.3645,4.3658,4.3609,4.3624,4.3636,0,0,0,0,0,0,4.0795,4.1125,4.1172,4.1469,4.1675,4.1961,4.2095,4.2158,4.2374,4.237,4.2543,4.2607,4.287,4.3006,4.2907,4.3345,4.331,4.3337,4.3248,4.3264,4.3274,4.3237,4.2951,0,0,0,0,0,4.0809,4.1025,4.13,4.1534,4.1636,4.1846,4.198,4.2078,4.2297,4.2384,4.2569,4.2775,4.2995,4.3136,4.3353,4.3632,4.3695,4.3743,4.3754,4.3762,4.3784,4.3939,4.3963,4.3706,4.3706,4.3706,0,0,4.0841,4.1047,4.1173,4.1521,4.1693,4.1907,4.1919,4.2147,4.2306,4.2418,4.2692,4.2832,4.3074,4.3352,4.3484,4.3473,4.3868,4.3778,4.3782,4.3802,4.3954,4.3978,4.4,4.3715,4.3713,4.3712,0,0,4.1008,4.1187,4.1402,4.1573,4.1832,4.197,4.202,4.2297,4.2396,4.2673,4.276,4.2949,4.3325,4.3493,4.3627,4.385,4.3905,4.3915,4.3974,4.4122,4.4142,4.4161,4.4239,4.4266,4.3936,4.3936,4.3936,0,4.1014,4.1346,4.1503,4.1727,4.1875,4.1987,4.2202,4.2359,4.2673,4.2771,4.2755,4.3227,4.3397,4.3715,4.3769,4.3874,4.3934,4.3885,4.4127,4.4148,4.4167,4.4244,4.4273,4.3935,4.3935,4.3936,4.3936,0,4.1339,4.1566,4.1707,4.2012,4.2175,4.2393,4.2579,4.2724,4.2805,4.2943,4.322,4.3427,4.3687,4.3768,4.3849,4.4096,4.4081,4.4093,4.4062,4.4189,4.4264,4.4294,4.3935,4.3935,4.3935,4.3935,0,0,4.1469,4.1854,4.1903,4.2041,4.2332,4.2508,4.2727,4.2983,4.3104,4.3314,4.3501,4.3813,4.3825,4.3977,4.4076,4.4206,4.4367,4.4203,4.4211,4.4226,4.4649,4.4639,4.4671,4.4404,4.441,4.4415,4.4628,0,4.1673,4.2076,4.222,4.2549,4.2759,4.2863,4.3053,4.3249,4.3381,4.3574,4.3718,4.3937,4.3937,4.4029,4.4162,4.4319,4.4454,4.4306,4.4576,4.4583,4.4515,4.4711,4.4703,4.4895,4.4659,4.4664,4.4668,0,4.1969,4.2185,4.2535,4.2796,4.2889,4.3059,4.3303,4.3487,4.3707,4.3794,4.3961,4.405,4.4278,4.4229,4.4543,4.4438,4.4556,4.4648,4.4659,4.4692,4.4635,4.4749,4.496,4.4989,4.4715,4.4712,4.4708,0,4.2028,4.2406,4.2664,4.2778,4.3089,4.3205,4.3339,4.3556,4.3699,4.3909,4.4003,4.4235,4.4362,4.4537,4.4685,4.4636,4.4984,4.4948,4.5059,4.5055,4.5131,4.5125,4.5364,4.5203,4.5202,4.5202,4.5201,0,4.2243,4.2453,4.2695,4.2854,4.309,4.325,4.3477,4.3617,4.3807,4.3991,4.4092,4.4261,4.4445,4.4636,4.4752,4.4992,4.5048,4.5122,4.5151,4.5115,4.5105,4.5196,4.5187,4.521,4.5208,4.5206,4.5205,0,4.2353,4.2524,4.2811,4.3081,4.3152,4.3314,4.3543,4.3697,4.3831,4.4062,4.4125,4.4334,4.4564,4.4727,4.5022,4.5099,4.5358,4.5385,4.5285,4.5299,4.5401,4.5389,4.571,4.5759,4.5562,4.5563,4.5565,0,4.2481,4.2645,4.2931,4.3063,4.3197,4.3408,4.3554,4.3714,4.3861,4.4122,4.4244,4.448,4.468,4.504,4.5216,4.544,4.5474,4.557,4.5508,4.5466,4.5476,4.5465,4.5481,4.558,4.5581,4.5582,4.5583,0,4.2689,4.2764,4.2973,4.321,4.3382,4.3575,4.377,4.387,4.4063,4.4222,4.446,4.4613,4.4914,4.5146,4.5387,4.5519,4.5583,4.56,4.5638,4.5605,4.554,4.5576,4.5311,4.5594,4.5593,4.5592,4.5591,4.5591,4.2813,4.2963,4.3186,4.3414,4.3576,4.3754,4.3912,4.4065,4.4267,4.4527,4.4606,4.4851,4.5061,4.5392,4.5526,4.5717,4.5712,4.5766,4.578,4.5792,4.579,4.5507,4.5761,4.576,4.576,4.576,4.576,0,4.3028,4.3175,4.3383,4.3652,4.3828,4.3873,4.4088,4.4232,4.4448,4.464,4.4833,4.5102,4.5326,4.5517,4.5748,4.5863,4.5898,4.5918,4.5913,4.5941,4.5782,4.5727,4.5887,4.5887,4.5887,4.5886,4.5886,4.5886,4.3161,4.3415,4.3515,4.3847,4.3993,4.4237,4.4355,4.4517,4.4671,4.4969,4.5156,4.5279,4.547,4.5714,4.5919,4.5969,4.6049,4.6063,4.6119,4.5968,4.5953,4.5939,4.5888,4.6079,4.6079,4.6264,4.6265,4.6267]},{"header":{"parameterUnit":"m.s-1","parameterCategory":1,"la1":30.2991,"la2":30.254,"lo1":-89.0895,"lo2":-89.0444,"dy":0.0017,"dx":0.0017,"nx":28,"ny":28,"refTime":"2024-08-11T09:00:00:Z","depth":0,"parameterNumber":3,"parameterNumberName":"V-component_of_WINDS"},"data":[0,0,0,0,0,0,0,0,0,0,0,0,0,0,0,0,0,0,0,0,0,0,0,0,0,0,0,0,0,0,0,0,0,0,0,0,0,0,0,0,0,0,0,0,0,0,0,0,0,0,0,0,0,0,0,0,0,0,2.0242,2.0245,0,2.0496,2.0499,2.0502,2.0642,2.0643,2.0643,2.0643,2.0908,2.0914,2.0921,0,0,0,0,0,0,0,0,0,0,0,0,0,1.9886,1.9892,2.0242,2.0245,2.0248,2.0496,2.0499,2.0503,2.0642,2.0643,2.0643,2.0644,2.0906,2.0913,2.0922,0,0,0,0,0,0,0,0,0,0,0,0,0,2.0081,1.9894,2.0241,2.0347,2.0359,2.0495,2.05,2.0504,2.0642,2.0643,2.0643,2.0644,2.0903,2.0913,2.0923,2.0973,0,0,2.0953,2.0958,0,0,0,0,0,0,0,0,2.007,2.0094,2.0329,2.034,2.0354,2.0538,2.0471,2.0661,2.0642,2.0535,2.0643,2.0644,2.0785,2.0804,2.0851,2.0986,2.0997,2.0954,2.096,2.0965,2.0967,0,0,0,0,0,0,0,2.0056,2.0084,2.0343,2.0332,2.0347,2.0386,2.0414,2.0508,2.0654,2.0544,2.0555,2.0583,2.0792,2.0841,2.0858,2.1001,2.0954,2.0963,2.0969,2.0973,2.12,2.12,0,0,0,0,0,0,2.0024,2.0071,2.0335,2.035,2.021,2.0392,2.0423,2.0478,2.0653,2.068,2.0582,2.0589,2.0824,2.0846,2.0868,2.0945,2.0964,2.0974,2.098,2.12,2.12,2.12,0,0,0,0,0,0,2.0016,2.0046,2.0324,2.0214,2.0252,2.0397,2.0458,2.0483,2.0533,2.0682,2.0709,2.0605,2.0825,2.0854,2.0948,2.0956,2.0978,2.0988,2.12,2.12,2.12,2.1095,0,0,0,0,0,0,2.0005,2.0043,2.006,2.0213,2.0257,2.0396,2.0458,2.0488,2.0549,2.056,2.071,2.0736,2.0828,2.0932,2.0958,2.097,2.0995,2.12,2.12,2.12,2.1098,2.1091,2.1085,0,0,0,0,0,1.9992,2.002,2.006,2.0092,2.0282,2.0396,2.0422,2.0526,2.0549,2.0571,2.0668,2.0731,2.0951,2.0941,2.0971,2.0986,2.12,2.12,2.12,2.1101,2.1093,2.1086,0,0,0,0,0,0,1.9864,2.0041,2.0089,2.0166,2.0265,2.042,2.0449,2.0512,2.0608,2.0614,2.074,2.0773,2.0857,2.0931,2.0917,2.105,2.1083,2.1089,2.0997,2.099,2.0984,2.0965,2.1004,0,0,0,0,0,1.9844,1.9919,2.0072,2.0125,2.0173,2.0302,2.0356,2.0428,2.0536,2.0579,2.0683,2.0787,2.0882,2.094,2.1033,2.111,2.1149,2.1137,2.113,2.1124,2.1128,2.1182,2.118,2.1201,2.1201,2.1201,0,0,1.9805,1.9911,1.9951,2.0102,2.0188,2.0267,2.0337,2.0415,2.0477,2.0592,2.0688,2.0768,2.0894,2.0982,2.1025,2.1046,2.1132,2.1124,2.1118,2.1126,2.1182,2.118,2.1178,2.1201,2.1201,2.1201,0,0,1.9774,1.986,1.9917,2.0003,2.0132,2.0219,2.0233,2.038,2.0438,2.0537,2.0627,2.0704,2.086,2.0948,2.1013,2.1025,2.1089,2.1052,2.1018,2.1069,2.1068,2.1067,2.1076,2.1078,2.1055,2.1055,2.1055,0,1.9709,1.9829,1.9939,2.0015,2.0082,2.0191,2.0253,2.0331,2.0484,2.053,2.0551,2.0755,2.0847,2.096,2.0964,2.1011,2.1036,2.1035,2.1059,2.1059,2.106,2.1071,2.1073,2.105,2.1051,2.1051,2.1052,0,1.9746,1.9829,1.9861,2.0007,2.0078,2.0146,2.0271,2.033,2.0397,2.0484,2.0588,2.0703,2.0825,2.0857,2.0922,2.0982,2.0992,2.1034,2.1071,2.1051,2.1064,2.1068,2.1043,2.1045,2.1046,2.1048,0,0,1.9638,1.9849,1.9859,1.993,2.0084,2.0152,2.0229,2.0349,2.0399,2.0503,2.0575,2.0708,2.0751,2.0825,2.0903,2.0947,2.0957,2.0985,2.099,2.0979,2.1037,2.1006,2.1008,2.1,2.1001,2.1002,2.1028,0,1.9633,1.9773,1.9877,1.9979,2.0061,2.0169,2.0238,2.0342,2.0426,2.0511,2.0606,2.0701,2.0746,2.0793,2.0842,2.0944,2.097,2.0944,2.1072,2.1075,2.1039,2.1014,2.098,2.0998,2.1033,2.1033,2.1034,0,1.9643,1.9745,1.9855,2.0007,2.0046,2.0104,2.0227,2.0305,2.0428,2.0488,2.0574,2.0655,2.0747,2.0775,2.0907,2.0887,2.0946,2.1005,2.1009,2.1026,2.1054,2.1034,2.1006,2.1009,2.1042,2.1041,2.1041,0,1.9559,1.9724,1.9813,1.987,2.0048,2.0088,2.0165,2.0289,2.0357,2.0465,2.0512,2.0628,2.0693,2.0784,2.0898,2.0907,2.102,2.1056,2.1076,2.1073,2.1095,2.1092,2.1079,2.1128,2.1128,2.1128,2.1128,0,1.9543,1.9607,1.9779,1.9833,1.9911,2.0034,2.0109,2.0195,2.0306,2.0383,2.0484,2.0555,2.07,2.079,2.088,2.0979,2.1006,2.106,2.1084,2.1053,2.1046,2.1094,2.1097,2.1129,2.1129,2.1129,2.1128,0,1.9462,1.9578,1.9683,1.9845,1.9888,1.9938,2.0079,2.014,2.0232,2.033,2.036,2.0505,2.0618,2.074,2.0893,2.0954,2.105,2.1081,2.1008,2.1022,2.1036,2.1035,2.1055,2.1067,2.1104,2.1103,2.1103,0,1.9444,1.9497,1.9666,1.9725,1.9799,1.9891,1.9963,2.0088,2.0158,2.0307,2.0351,2.0471,2.0574,2.075,2.0872,2.0992,2.1029,2.1029,2.1048,2.1017,2.1035,2.1031,2.104,2.1023,2.1021,2.1021,2.102,0,1.9404,1.9461,1.9557,1.9677,1.9759,1.9859,1.9964,2.0007,2.0154,2.023,2.0346,2.0426,2.0585,2.0705,2.0841,2.0925,2.0999,2.1013,2.1025,2.0995,2.0952,2.098,2.0995,2.1012,2.1013,2.1013,2.1014,2.1014,1.9358,1.9412,1.9541,1.9648,1.974,1.9837,1.9904,2.0006,2.0105,2.0244,2.0313,2.043,2.0561,2.0751,2.0834,2.0931,2.0953,2.0969,2.0974,2.0976,2.0971,2.0935,2.0956,2.0956,2.0957,2.0957,2.0957,0,1.9326,1.9416,1.9513,1.9657,1.9743,1.9805,1.9926,1.9995,2.0097,2.0211,2.0312,2.045,2.0569,2.0702,2.0831,2.0883,2.0921,2.0913,2.0912,2.0932,2.094,2.0919,2.0881,2.0881,2.0881,2.0881,2.0881,2.0881,1.932,1.9417,1.949,1.9637,1.9728,1.9843,1.9908,2.0,2.0093,2.0242,2.0342,2.0428,2.0553,2.0692,2.0807,2.0844,2.0888,2.0871,2.0918,2.0924,2.093,2.0936,2.0917,2.0879,2.0879,2.0902,2.0902,2.0902]}]]